Location: Newark
(30.0333°N, 31.2167°E)
Time: 14:39:58
(UTC+00:00)

Tiros 1 despin weight - Pass Details

Date: 28 January 2020
Orbit: 594 x 642 km, 48.2° (Epoch: 22 February)

Event Time Altitude Azimuth Distance (km) Brightness Sun altitude
Rises 13:57:07 0° 317° (NW) 2,910 ? 16.7°
Reaches altitude 10° 13:59:33 10° 325° (NW) 2,008 ? 16.3°
Maximum altitude 14:03:55 40° 36° (NE) 929 ? 15.5°
Drops below altitude 10° 14:08:19 10° 106° (ESE) 2,021 ? 14.7°
Sets 14:10:46 0° 114° (ESE) 2,930 ? 14.2°
